Flag for U.S.A. Weather past 2 weeks in Dallas, Texas, U.S.A.

43 °F

Drizzle. Fog.

Feels Like: 39 °F
Forecast: 43 / 51 °F
Wind: 6 mph from Northwest

Location: Dallas Love Field

Current Time: Nov 30, 2015 at 6:40:11 AM

Latest Report: Nov 30, 2015 at 5:58 AM

Visibility: 1 mi

Pressure: 30.03 "Hg

Humidity: 97%

Dew point: 42 °F

Location of DallasLocation

Historic Weather in Dallas — Graph


Dallas temperature yesterday

Maximum temperature yesterday: 43 °F (at 2:53 PM)
Minimum temperature yesterday: 39 °F (at 1:53 AM)
Average temperature yesterday: 41 °F

Past Weeks' High & Low Weather Summary

High75 °F (Nov 25, 2:53 PM)100% (Nov 28, 5:53 AM)30.37 "Hg (Nov 28, 5:53 AM)
Low33 °F (Nov 22, 6:57 AM)26% (Nov 22, 1:53 PM)29.45 "Hg (Nov 17, 3:53 AM)
Average55 °F71%30.07 "Hg
* Reported Nov 15 4:53 AM — Nov 30 4:53 AM, Dallas, Weather by CustomWeather, © 2015

Note: Actual official high and low records may vary slightly from our data, if they occured in-between our weather recording intervals... More about our weather records


Dallas weather history for previous 24 hours

Time TempWeatherWind HumidityBarometerVisibility
4:53 AM
Mon, Nov 30
43 °FLow clouds.6 mph100%30.02 "Hg8 mi
3:53 AM43 °FLow clouds.No wind100%30.02 "Hg8 mi
2:53 AM43 °FLow clouds.3 mph97%30.03 "Hg7 mi
1:53 AM43 °FFog.5 mph97%30.05 "Hg3 mi
12:53 AM42 °FDrizzle. Fog.6 mph100%30.07 "Hg2 mi
11:53 PM
Sun, Nov 29
42 °FDrizzle. Fog.5 mph100%30.07 "Hg2 mi
11:04 PM43 °FDrizzle. Fog.3 mph97%30.09 "Hg2 mi
9:53 PM43 °FLow clouds.5 mph93%30.10 "Hg10 mi
8:53 PM43 °FLight rain. Mostly cloudy.No wind93%30.11 "Hg10 mi
7:53 PM43 °FLight rain. Overcast.6 mph93%30.12 "Hg10 mi
6:53 PM42 °FLight rain. Mostly cloudy.8 mph96%30.11 "Hg10 mi
5:53 PM43 °FLight rain. Low clouds.8 mph93%30.14 "Hg10 mi
4:53 PM42 °FLow clouds.12 mph96%30.12 "Hg10 mi
3:53 PM42 °FLow clouds.9 mph96%30.11 "Hg10 mi
2:53 PM43 °FLow clouds.10 mph93%30.14 "Hg10 mi
2:02 PM42 °FLight rain. Mostly cloudy.3 mph96%30.15 "Hg8 mi
12:53 PM42 °FLight rain. Fog.5 mph92%30.15 "Hg5 mi
11:53 AM41 °FLight rain. Cloudy.5 mph96%30.18 "Hg7 mi
10:53 AM41 °FLight rain. Fog.9 mph93%30.23 "Hg4 mi
10:03 AM40 °FLight rain. Fog.6 mph97%30.23 "Hg2 mi
8:53 AM40 °FLight rain. Fog.8 mph97%30.22 "Hg2 mi
7:53 AM39 °FRain. Fog.13 mph100%30.23 "Hg3 mi
6:53 AM39 °FLight rain. Fog.12 mph100%30.21 "Hg3 mi
Weather by CustomWeather, © 2015

See weather overviewHow to use our weather pages